[Iaude] MPEC L32: 2024 LJ [a=1.55,e=0.48,i=26.3,H=23.4]
    mpec at cfa.harvard.edu 
    mpec at cfa.harvard.edu
       
    Mon Jun  3 10:17:40 EDT 2024
    
    
  
M.P.E.C. 2024-L32                                  Issued 2024 June 3, 14:16 UT
     The Minor Planet Electronic Circulars contain information on unusual
         minor planets, routine data on comets and natural satellites,
         and occasional editorial announcements.  They are published
    on behalf of Division F of the International Astronomical Union by the
          Minor Planet Center, Smithsonian Astrophysical Observatory,
                          Cambridge, MA 02138, U.S.A.
			  
             Prepared using the Tamkin Foundation Computer Network
                              MPC at CFA.HARVARD.EDU
            URL https://www.minorplanetcenter.net/    ISSN 1523-6714
                                    2024 LJ                                     
Observations:
     K24L00J  C2024 05 28.37489617 49 20.350+21 50 43.42         22.16GVEL032F52
     K24L00J  C2024 05 28.38727517 49 19.808+21 50 47.51         22.23GVEL032F52
     K24L00J  C2024 05 28.39965617 49 19.238+21 50 51.45         22.10GVEL032F52
     K24L00J* C2024 06 01.54843417 46 06.934+22 05 33.27         22.15wXEL032F51
     K24L00J  C2024 06 01.56177317 46 05.919+22 05 34.23         22.03wXEL032F51
     K24L00J  C2024 06 01.57508017 46 04.954+22 05 35.10         22.02wXEL032F51
     K24L00J KC2024 06 03.23797 17 44 16.24 +22 07 09.3          21.4 RVEL032291
     K24L00J KC2024 06 03.24669 17 44 15.53 +22 07 09.5          21.6 RVEL032291
     K24L00J KC2024 06 03.25542 17 44 14.72 +22 07 10.1          21.9 RVEL032291
     K24L00J KC2024 06 03.28317817 44 11.23 +22 07 06.6          22.0 GVEL032H21
     K24L00J KC2024 06 03.28905217 44 10.67 +22 07 06.9          21.2 GVEL032H21
     K24L00J KC2024 06 03.29483217 44 10.16 +22 07 06.9          22.0 GVEL032H21
     K24L00J 3C2024 06 03.29794017 44 12.707+22 07 13.07         21.52GVEL032T14
Observer details:
291 LPL/Spacewatch II.  Observer T. H. Bressi.  1.8-m f/2.7 reflector + CCD.
F51 Pan-STARRS 1, Haleakala.  Observers J. Herman, T. Lowe, P. Minguez, A.
    Schultz, I. Smith.  Measurers K. Chambers, T. de Boer, J. Fairlamb, H.
    Gao, M. Huber, C.-C. Lin, E. Magnier, Y. Ramanjooloo, R. Wainscoat, R.
    Weryk.  1.8-m Ritchey-Chretien + CCD.
F52 Pan-STARRS 2, Haleakala.  Observers J. Herman, T. Lowe, P. Minguez, A.
    Schultz, I. Smith.  Measurers K. Chambers, T. de Boer, J. Fairlamb, H.
    Gao, M. Huber, C.-C. Lin, E. Magnier, Y. Ramanjooloo, R. Wainscoat, R.
    Weryk.  1.8-m Ritchey-Chretien + CCD.
H21 Astronomical Research Observatory, Westfield.  Observer R. Holmes.
    Measurers T. Linder, R. Holmes, L. Horn.  1.3-m f/4.0 astrograph + CCD.
T14 Canada-France-Hawaii Telescope, Maunakea.  Observers R. Wainscoat, J.
    Silva, T. Burdullis.  Measurers R. Weryk, R. Wainscoat.  3.6-m f/4.1
    reflector + CCD.
Orbital elements:
2024 LJ                                                  Earth MOID = 0.0080 AU
Epoch 2024 Mar. 31.0 TT = JDT 2460400.5                 MPC                     
M 291.82046              (2000.0)            P               Q                  
n   0.51172333     Peri.  251.31077     +0.84400503     +0.30314100             
a   1.5480295      Node    89.04267     -0.14023486     +0.92098068             
e   0.4835594      Incl.   26.26418     -0.51767721     +0.24474503             
P   1.93           H   23.48          G   0.15           U   8                  
Residuals in seconds of arc
240528 F52  0.1+  0.2+    240601 F51  0.2+  0.1-    240603 H21  0.2-  0.1+
240528 F52  0.1+  0.0     240603 291  1.0-  0.6+    240603 H21  0.1-  0.2+
240528 F52  0.1-  0.2-    240603 291  0.2-  0.3+    240603 T14  0.0   0.0
240601 F51  0.0   0.1-    240603 291  0.7-  0.4+
240601 F51  0.2-  0.1-    240603 H21  0.1+  0.1-
Ephemeris:
2024 LJ                  a,e,i = 1.55, 0.48, 26                  q = 0.7995
Date    TT    R. A. (2000) Decl.     Delta      r    Elong.  Phase     V
2024 05 04    17 46 57.1 +18 12 39   0.5501  1.3907   123.7    37.1    24.4
...
2024 05 19    17 51 33.2 +20 44 26   0.3734  1.2794   128.8    38.0    23.4
...
2024 05 27    17 50 00.1 +21 43 24   0.2831  1.2186   131.3    38.7    22.7
...
2024 06 02    17 45 40.2 +22 06 19   0.2169  1.1728   132.9    39.3    22.1
2024 06 03    17 44 32.2 +22 07 15   0.2060  1.1652   133.2    39.4    21.9
2024 06 04    17 43 14.7 +22 07 04   0.1951  1.1575   133.5    39.5    21.8
...
2024 06 10    17 30 23.4 +21 29 09   0.1306  1.1119   135.3    39.9    20.9
...
2024 06 18    16 22 32.8 +13 57 19   0.04835 1.0521   137.4    40.9    18.6
...
2024 07 03    06 56 37.3 -28 29 56   0.1194  0.9470    51.5   122.8    23.8
A. U. Tomatic                (C) Copyright 2024 MPC           M.P.E.C. 2024-L32
    
    
More information about the Iaude
mailing list